This is the latest recevied weather packets stored in our database for station/object OZ1IEP-5. If no packets are shown the sender has not sent any weather packets the latest 10 day(s).
| Time | Temp. | Humidity | Pressure | Rain* | Wind** | Luminosity | Snow |
|---|---|---|---|---|---|---|---|
| 1787904008 | 19.44° C | 68% | 1008.2 hPa | 0 mm | - | 51 W/m² | - |
| 1787903406 | 19.44° C | 68% | 1008.5 hPa | 0 mm | - | 65 W/m² | - |
| 1787902805 | 19.44° C | 67% | 1008.8 hPa | 0 mm | - | 69 W/m² | - |
| 1787902208 | 19.44° C | 68% | 1009 hPa | 0 mm | - | 76 W/m² | - |
| 1787901606 | 19.44° C | 69% | 1009 hPa | 0 mm | - | 62 W/m² | - |
| 1787901005 | 18.89° C | 69% | 1009.3 hPa | 0 mm | - | 67 W/m² | - |
| 1787900407 | 18.89° C | 70% | 1009.4 hPa | 0 mm | - | 63 W/m² | - |
| 1787899806 | 18.89° C | 71% | 1009.4 hPa | 0 mm | - | 69 W/m² | - |
| 1787899205 | 18.89° C | 72% | 1009.7 hPa | 0 mm | - | 77 W/m² | - |
| 1787898609 | 18.33° C | 73% | 1009.8 hPa | 0 mm | - | 60 W/m² | - |
| 1787898006 | 18.33° C | 74% | 1010.1 hPa | 0 mm | - | 49 W/m² | - |
| 1787897405 | 18.33° C | 74% | 1010.4 hPa | 0 mm | - | 44 W/m² | - |
| 1787896808 | 18.33° C | 75% | 1010.5 hPa | 0 mm | - | 46 W/m² | - |
| 1787896206 | 18.33° C | 75% | 1010.6 hPa | 0 mm | - | 39 W/m² | - |
| 1787895606 | 17.78° C | 76% | 1010.7 hPa | 0 mm | - | 37 W/m² | - |
| 1787895008 | 17.78° C | 76% | 1010.5 hPa | 0 mm | - | 28 W/m² | - |
| 1787894405 | 17.78° C | 77% | 1010.6 hPa | 0 mm | - | 21 W/m² | - |
| 1787893805 | 17.22° C | 78% | 1010.8 hPa | 0 mm | - | 19 W/m² | - |
| 1787893208 | 17.22° C | 78% | 1010.9 hPa | 0 mm | - | 16 W/m² | - |
| 1787892605 | 17.22° C | 79% | 1010.9 hPa | 0 mm | - | 12 W/m² | - |
| 1787892006 | 17.22° C | 79% | 1010.9 hPa | 0 mm | - | 7 W/m² | - |
| 1787891409 | 17.22° C | 79% | 1010.9 hPa | 0 mm | - | 5 W/m² | - |
| 1787890806 | 17.22° C | 79% | 1011 hPa | 0 mm | - | 0 W/m² | - |
| 1787890206 | 17.22° C | 79% | 1010.9 hPa | 0 mm | - | 0 W/m² | - |
| 1787889612 | 17.22° C | 80% | 1011.2 hPa | 0 mm | - | 0 W/m² | - |
* Rain latest hour (hover to see other rain measurements)
** Current wind speed in m/s (hover to see current wind gust speed)